STARLINK-1931, 46790

Orbit data source: Space-Track

STARLINK-1931, 46790 is a payload satellite owned by SpaceX/Seattle (US) in LEO that was launched on Sat, 24 Oct 2020 UTC via an FALCON 9 launch vehicle from the Air Force Eastern Test Range (AFETR). Payload-class satellites include a variety of spacecraft equipped with specific instruments for various scientific and technological missions. These include communications satellites like Starlink; space stations such as the ISS; scientific satellites like the Hubble; Earth observation satellites from companies like Planet Labs, Umbra, and HawkEye 360; GPS; miniature CubeSats for education and research; and military/defense satellites.

Not visible in the next 10 days
Identifier
46790, 2020-074BD
Orbit
LEO
Country
Flag of USUS
Related business
Manufacturer
SpaceX/Seattle
Mission
Partially operational Commercial Communications
Bus & Motor
STARLINK, Unknown motor
Mass
260 kg wet, ~248 kg dry
Launch date (UTC)
2020-10-24 (6 years ago)
Launch vehicle
FALCON 9
Launch site
Air Force Eastern Test Range (AFETR)
Object type
Payload
Rocket body
Debris
Shape & HBR
Box + 1 Pan, 10.1 m
Radar Cross Section
13.562 m², Large (>1 m²)

Expand to show TLE details & history
Last TLE update: 1 day ago

TLE from 1 day ago
0 STARLINK-1931
1 46790U 20074BD  26172.31988959  .00991821  60050-3  94517-3 0  9992
2 46790  53.0273 123.2380 0004594 214.6004 145.4732 16.11332616313593
Epoch: 2026-06-21T07:40Z
TLE epoch observation values (Epoch: 2026-06-21T07:40:38.460Z)
Latitude
-0°
Longitude
98.55589°
Altitude
246.613 km
Speed
7.759 km/s
True Right ascension
08h 12m 57s
True Declination
0° 00' 00"
Sunlit
Object was in daylight at epoch
Visualization orbit readout
Latitude
Unknown
Longitude
Unknown
Altitude
Unknown
Speed
Unknown
Apparent Right ascension
Unknown
Apparent Declination
Unknown
Sunlit
N/A
Visualization observer readout
Local Sidereal Time
21:39:51
Azimuth
Unknown
Elevation
Unknown
Doppler factor
Unknown
Orbital elements
Apogee altitude
246.519 km
Perigee altitude
240.435 km
Semi-major axis
6,621.614 km
Eccentricity
0.00046
Inclination
53.0273°
RAAN
123.238°
Arg. of periapsis
214.6004°
True anomaly
145.50302°
Mean anomaly
145.4732°
Eccentric anomaly
145.48811°
Mean motion
4.02807 °/min
Orbital period
89.37 mins
BSTAR
0.00094517
Loading maneuver chart data...
Computing Atmospheric mass density...

Documentation

Showing up to 5 results
|